ASA342 PAJN-PANC

Flight info

Callsign ASA342
Flight time N/A
Altitude 38000
Route CHLKT2 ALATY JOH WITTI5
Aircraft B739/M-SDE2E3FGHIRWXY/LB1

Departure

Time 2026-05-03 21:08
Airport Juneau International Airport (PAJN)

Arrival

Time N/A
Airport Ted Stevens Anchorage International Airport (PANC)
Time Latitude Longitude Altitude Speed Heading
2026-05-03 20:55 58.35842 -134.58435 -6 ft 0 kts 47°
2026-05-03 21:01 58.35839 -134.58441 -6 ft 1 kts 33°
2026-05-03 21:01 58.35825 -134.58452 -7 ft 2 kts 22°
2026-05-03 21:01 58.35812 -134.58466 -7 ft 2 kts 29°
2026-05-03 21:02 58.35799 -134.58479 -7 ft 1 kts 26°
2026-05-03 21:02 58.35791 -134.58490 -7 ft 1 kts 70°
2026-05-03 21:02 58.35790 -134.58502 -7 ft 1 kts 103°
2026-05-03 21:02 58.35791 -134.58511 -7 ft 0 kts 95°
2026-05-03 21:04 58.35790 -134.58502 -7 ft 1 kts 95°
2026-05-03 21:04 58.35789 -134.58478 -7 ft 2 kts 95°
2026-05-03 21:04 58.35788 -134.58447 -7 ft 1 kts 97°
2026-05-03 21:04 58.35782 -134.58409 -7 ft 8 kts 104°
2026-05-03 21:05 58.35733 -134.58308 -6 ft 9 kts 194°
2026-05-03 21:05 58.35720 -134.58449 -7 ft 14 kts 280°
2026-05-03 21:05 58.35751 -134.58713 -7 ft 21 kts 286°
2026-05-03 21:05 58.35792 -134.58964 -7 ft 18 kts 287°
2026-05-03 21:06 58.35827 -134.59196 -7 ft 17 kts 285°
2026-05-03 21:06 58.35858 -134.59416 -7 ft 16 kts 285°
2026-05-03 21:06 58.35858 -134.59624 -9 ft 18 kts 223°
2026-05-03 21:06 58.35760 -134.59541 -6 ft 38 kts 102°
2026-05-03 21:07 58.35610 -134.58434 -7 ft 128 kts 104°
2026-05-03 21:07 58.35352 -134.56625 96 ft 149 kts 104°
2026-05-03 21:07 58.35084 -134.54521 132 ft 169 kts 103°
2026-05-03 21:07 58.34712 -134.52461 375 ft 176 kts 116°
2026-05-03 21:08 58.33859 -134.50499 731 ft 203 kts 137°
2026-05-03 21:08 58.32730 -134.48702 1054 ft 227 kts 138°
2026-05-03 21:08 58.31528 -134.46619 1383 ft 241 kts 136°
2026-05-03 21:08 58.30300 -134.44298 2126 ft 255 kts 134°
2026-05-03 21:09 58.29129 -134.41882 3228 ft 252 kts 133°
2026-05-03 21:09 58.27967 -134.39403 4049 ft 260 kts 133°
2026-05-03 21:09 58.26743 -134.36801 4848 ft 268 kts 134°
2026-05-03 21:09 58.25487 -134.34168 5640 ft 276 kts 136°
2026-05-03 21:10 58.24151 -134.31541 6477 ft 280 kts 142°
2026-05-03 21:10 58.22548 -134.29513 7233 ft 281 kts 163°
2026-05-03 21:10 58.20660 -134.28812 7958 ft 279 kts 186°
2026-05-03 21:10 58.18776 -134.29311 8724 ft 278 kts 201°
2026-05-03 21:11 58.16987 -134.30482 9556 ft 274 kts 213°
2026-05-03 21:11 58.15495 -134.32596 10305 ft 268 kts 234°
2026-05-03 21:11 58.14511 -134.35584 10859 ft 273 kts 252°
2026-05-03 21:11 58.13958 -134.39076 11422 ft 282 kts 263°
2026-05-03 21:12 58.13854 -134.42696 12215 ft 282 kts 278°
2026-05-03 21:12 58.14415 -134.46210 13071 ft 282 kts 290°
2026-05-03 21:12 58.15193 -134.49687 13444 ft 298 kts 292°
2026-05-03 21:12 58.16008 -134.53348 14000 ft 305 kts 291°
2026-05-03 21:13 58.16792 -134.56985 15091 ft 292 kts 291°
2026-05-03 21:13 58.17530 -134.60481 15926 ft 289 kts 290°
2026-05-03 21:13 58.18348 -134.64015 16406 ft 301 kts 295°
2026-05-03 21:13 58.19513 -134.67377 16743 ft 318 kts 306°
2026-05-03 21:14 58.21079 -134.70491 17093 ft 334 kts 311°
2026-05-03 21:14 58.22801 -134.73523 17349 ft 350 kts 313°
2026-05-03 21:14 58.24630 -134.76691 17649 ft 363 kts 313°
2026-05-03 21:14 58.26499 -134.79961 18228 ft 368 kts 313°
2026-05-03 21:15 58.28353 -134.83247 18866 ft 370 kts 313°
2026-05-03 21:15 58.30231 -134.86614 19539 ft 372 kts 312°
2026-05-03 21:15 58.32097 -134.89984 20147 ft 375 kts 312°
2026-05-03 21:15 58.33975 -134.93391 20801 ft 376 kts 312°
2026-05-03 21:16 58.35866 -134.96837 21381 ft 379 kts 313°
2026-05-03 21:16 58.37759 -135.00290 21940 ft 381 kts 312°
2026-05-03 21:16 58.39682 -135.03806 22449 ft 385 kts 313°
2026-05-03 21:16 58.41556 -135.07346 22996 ft 386 kts 310°
2026-05-03 21:17 58.43329 -135.11136 23552 ft 386 kts 306°
2026-05-03 21:17 58.44411 -135.13831 23895 ft 386 kts 303°
2026-05-03 21:17 58.46437 -135.19525 24543 ft 389 kts 301°
2026-05-03 21:17 58.47880 -135.23845 25070 ft 390 kts 300°
2026-05-03 21:18 58.49319 -135.28215 25566 ft 393 kts 300°
2026-05-03 21:18 58.50775 -135.32645 26075 ft 394 kts 299°
2026-05-03 21:18 58.52217 -135.37025 26537 ft 397 kts 300°
2026-05-03 21:18 58.53699 -135.41521 27036 ft 398 kts 299°
2026-05-03 21:19 58.55171 -135.45979 27488 ft 400 kts 300°
2026-05-03 21:19 58.56639 -135.50427 27997 ft 400 kts 300°
2026-05-03 21:19 58.58139 -135.54979 28437 ft 402 kts 299°
2026-05-03 21:19 58.59635 -135.59518 28773 ft 406 kts 299°
2026-05-03 21:20 58.61140 -135.64088 29239 ft 407 kts 299°
2026-05-03 21:20 58.62650 -135.68680 29814 ft 405 kts 298°
2026-05-03 21:20 58.64140 -135.73212 30536 ft 399 kts 298°
2026-05-03 21:20 58.65598 -135.77660 31124 ft 396 kts 298°
2026-05-03 21:21 58.67050 -135.82095 31734 ft 392 kts 297°
2026-05-03 21:21 58.68476 -135.86465 32141 ft 392 kts 297°
2026-05-03 21:21 58.69917 -135.90894 32634 ft 390 kts 297°
2026-05-03 21:21 58.71347 -135.95294 33160 ft 387 kts 297°
2026-05-03 21:22 58.72755 -135.99629 33636 ft 385 kts 297°
2026-05-03 21:22 58.74160 -136.03967 34092 ft 383 kts 297°
2026-05-03 21:22 58.75563 -136.08310 34484 ft 382 kts 297°
2026-05-03 21:22 58.76954 -136.12627 34920 ft 380 kts 297°
2026-05-03 21:23 58.78341 -136.16931 35373 ft 378 kts 297°
2026-05-03 21:23 58.79706 -136.21179 35815 ft 376 kts 297°
2026-05-03 21:23 58.81068 -136.25423 36190 ft 374 kts 297°
2026-05-03 21:23 58.82439 -136.29700 36570 ft 373 kts 296°
2026-05-03 21:24 58.83799 -136.33958 36452 ft 374 kts 297°
2026-05-03 21:24 58.85137 -136.38156 36832 ft 373 kts 296°
2026-05-03 21:24 58.86489 -136.42403 37283 ft 370 kts 296°
2026-05-03 21:24 58.87825 -136.46605 37574 ft 371 kts 297°
2026-05-03 21:25 58.89170 -136.50841 37875 ft 371 kts 296°
2026-05-03 21:25 58.90521 -136.55104 38155 ft 370 kts 296°
2026-05-03 21:25 58.91861 -136.59343 38285 ft 372 kts 296°
2026-05-03 21:25 58.93208 -136.63617 38269 ft 374 kts 296°
2026-05-03 21:26 58.95858 -136.72020 38230 ft 367 kts 296°
2026-05-03 21:26 58.98516 -136.80501 38236 ft 370 kts 295°
2026-05-03 21:27 59.01176 -136.89020 38272 ft 371 kts 295°
2026-05-03 21:27 59.03817 -136.97485 38280 ft 367 kts 296°
2026-05-03 21:28 59.06466 -137.06023 38253 ft 371 kts 295°
2026-05-03 21:28 59.09094 -137.14517 38206 ft 370 kts 295°
2026-05-03 21:29 59.11742 -137.23106 38193 ft 368 kts 295°
2026-05-03 21:29 59.14360 -137.31641 38193 ft 372 kts 294°
2026-05-03 21:30 59.16985 -137.40214 38180 ft 367 kts 294°
2026-05-03 21:30 59.19599 -137.48798 38178 ft 369 kts 294°
2026-05-03 21:31 59.22198 -137.57369 38189 ft 368 kts 295°
2026-05-03 21:31 59.24785 -137.65907 38181 ft 368 kts 293°
2026-05-03 21:32 59.27368 -137.74474 38177 ft 368 kts 294°
2026-05-03 21:32 59.29945 -137.83043 38191 ft 368 kts 293°
2026-05-03 21:33 59.32514 -137.91628 38211 ft 367 kts 293°
2026-05-03 21:33 59.35087 -138.00276 38223 ft 367 kts 294°
2026-05-03 21:34 59.37635 -138.08873 38228 ft 368 kts 293°
2026-05-03 21:34 59.40191 -138.17499 38227 ft 366 kts 293°
2026-05-03 21:35 59.42452 -138.26347 38218 ft 363 kts 286°
2026-05-03 21:35 59.44035 -138.35626 38239 ft 360 kts 283°
2026-05-03 21:36 59.45527 -138.44974 38248 ft 358 kts 283°
2026-05-03 21:36 59.47026 -138.54311 38262 ft 360 kts 283°
2026-05-03 21:37 59.48519 -138.63623 38250 ft 360 kts 282°
2026-05-03 21:37 59.50018 -138.73025 38245 ft 360 kts 282°
2026-05-03 21:38 59.51503 -138.82369 38244 ft 360 kts 281°
2026-05-03 21:38 59.52978 -138.91722 38238 ft 358 kts 281°
2026-05-03 21:39 59.54443 -139.01096 38247 ft 360 kts 282°
2026-05-03 21:39 59.55902 -139.10474 38259 ft 357 kts 281°
2026-05-03 21:40 59.57347 -139.19794 38265 ft 360 kts 282°
2026-05-03 21:40 59.58792 -139.29192 38270 ft 358 kts 281°
2026-05-03 21:41 59.60231 -139.38606 38283 ft 359 kts 282°
2026-05-03 21:41 59.61659 -139.47977 38284 ft 358 kts 281°
2026-05-03 21:42 59.63082 -139.57362 38288 ft 358 kts 281°
2026-05-03 21:42 59.64504 -139.66792 38302 ft 360 kts 280°
2026-05-03 21:43 59.65921 -139.76216 38304 ft 357 kts 280°
2026-05-03 21:43 59.67318 -139.85596 38305 ft 359 kts 281°
2026-05-03 21:44 59.68710 -139.94981 38303 ft 357 kts 280°
2026-05-03 21:44 59.70104 -140.04413 38319 ft 358 kts 280°
2026-05-03 21:45 59.71485 -140.13820 38302 ft 358 kts 281°
2026-05-03 21:45 59.72857 -140.23224 38305 ft 358 kts 280°
2026-05-03 21:46 59.74226 -140.32665 38308 ft 360 kts 280°
2026-05-03 21:46 59.75596 -140.42171 38283 ft 359 kts 280°
2026-05-03 21:47 59.76954 -140.51621 38300 ft 358 kts 280°
2026-05-03 21:47 59.78301 -140.61053 38286 ft 359 kts 280°
2026-05-03 21:48 59.79652 -140.70607 38274 ft 359 kts 279°
2026-05-03 21:48 59.80982 -140.80080 38274 ft 359 kts 279°
2026-05-03 21:49 59.82308 -140.89571 38280 ft 358 kts 279°
2026-05-03 21:49 59.83636 -140.99109 38274 ft 358 kts 279°
2026-05-03 21:50 59.84952 -141.08618 38278 ft 360 kts 278°
2026-05-03 21:50 59.86261 -141.18135 38283 ft 358 kts 279°
2026-05-03 21:51 59.87563 -141.27692 38285 ft 359 kts 279°
2026-05-03 21:51 59.88863 -141.37270 38281 ft 361 kts 278°
2026-05-03 21:52 59.90149 -141.46811 38280 ft 360 kts 278°
2026-05-03 21:52 59.91441 -141.56435 38279 ft 360 kts 278°
2026-05-03 21:53 59.92719 -141.66010 38275 ft 360 kts 277°
2026-05-03 21:53 59.93990 -141.75581 38276 ft 357 kts 278°
2026-05-03 21:54 59.95252 -141.85161 38277 ft 358 kts 278°
2026-05-03 21:54 59.96508 -141.94785 38273 ft 362 kts 278°
2026-05-03 21:55 59.97774 -142.04521 38268 ft 360 kts 277°
2026-05-03 21:55 59.99009 -142.14154 38281 ft 359 kts 278°
2026-05-03 21:56 60.00242 -142.23776 38261 ft 362 kts 277°
2026-05-03 21:56 60.01482 -142.33495 38259 ft 362 kts 277°
2026-05-03 21:57 60.02713 -142.43247 38245 ft 361 kts 277°
2026-05-03 21:57 60.03936 -142.52971 38243 ft 365 kts 278°
2026-05-03 21:58 60.05152 -142.62714 38246 ft 364 kts 277°
2026-05-03 21:58 60.06370 -142.72530 38237 ft 362 kts 277°
2026-05-03 21:59 60.07582 -142.82327 38234 ft 363 kts 276°
2026-05-03 21:59 60.08780 -142.92104 38229 ft 364 kts 277°
2026-05-03 22:00 60.09976 -143.01907 38211 ft 364 kts 277°
2026-05-03 22:00 60.11169 -143.11789 38218 ft 367 kts 276°
2026-05-03 22:01 60.12363 -143.21730 38215 ft 368 kts 276°
2026-05-03 22:01 60.13504 -143.31297 38227 ft 367 kts 276°
2026-05-03 22:02 60.14674 -143.41200 38217 ft 368 kts 277°
2026-05-03 22:02 60.15850 -143.51183 38211 ft 367 kts 277°
2026-05-03 22:03 60.17011 -143.61154 38208 ft 369 kts 276°
2026-05-03 22:03 60.18171 -143.71141 38197 ft 368 kts 275°
2026-05-03 22:04 60.19321 -143.81137 38205 ft 367 kts 275°
2026-05-03 22:04 60.20454 -143.91103 38210 ft 368 kts 276°
2026-05-03 22:05 60.21592 -144.01140 38219 ft 370 kts 276°
2026-05-03 22:05 60.22724 -144.11191 38198 ft 371 kts 276°
2026-05-03 22:06 60.23844 -144.21185 38195 ft 371 kts 276°
2026-05-03 22:06 60.24970 -144.31334 38200 ft 373 kts 276°
2026-05-03 22:07 60.26081 -144.41417 38192 ft 368 kts 276°
2026-05-03 22:07 60.27179 -144.51440 38184 ft 371 kts 275°
2026-05-03 22:08 60.28278 -144.61615 38196 ft 373 kts 275°
2026-05-03 22:08 60.29367 -144.71718 38198 ft 370 kts 275°
2026-05-03 22:09 60.30450 -144.81841 38221 ft 372 kts 274°
2026-05-03 22:10 60.32057 -144.97046 38214 ft 373 kts 274°
2026-05-03 22:10 60.33120 -145.07228 38200 ft 372 kts 275°
2026-05-03 22:11 60.34182 -145.17435 38188 ft 371 kts 275°
2026-05-03 22:11 60.35231 -145.27600 38194 ft 374 kts 274°
2026-05-03 22:12 60.36275 -145.37825 38197 ft 372 kts 274°
2026-05-03 22:12 60.37313 -145.48073 38192 ft 376 kts 274°
2026-05-03 22:13 60.38348 -145.58348 38212 ft 373 kts 274°
2026-05-03 22:13 60.39368 -145.68585 38182 ft 374 kts 273°
2026-05-03 22:14 60.40382 -145.78851 38172 ft 375 kts 273°
2026-05-03 22:14 60.41391 -145.89191 38169 ft 374 kts 273°
2026-05-03 22:15 60.42396 -145.99489 38173 ft 376 kts 273°
2026-05-03 22:15 60.43394 -146.09880 38173 ft 378 kts 273°
2026-05-03 22:16 60.44385 -146.20247 37519 ft 380 kts 272°
2026-05-03 22:16 60.44876 -146.25439 36788 ft 380 kts 272°
2026-05-03 22:16 60.45373 -146.30670 36227 ft 376 kts 272°
2026-05-03 22:16 60.45861 -146.35812 35720 ft 374 kts 272°
2026-05-03 22:17 60.46345 -146.40947 35057 ft 376 kts 271°
2026-05-03 22:17 60.46824 -146.46085 34382 ft 377 kts 271°
2026-05-03 22:17 60.47310 -146.51314 33604 ft 377 kts 271°
2026-05-03 22:17 60.47798 -146.56490 32644 ft 383 kts 272°
2026-05-03 22:18 60.48420 -146.61768 31491 ft 396 kts 276°
2026-05-03 22:18 60.49204 -146.67165 30367 ft 405 kts 277°
2026-05-03 22:18 60.50075 -146.72615 29298 ft 411 kts 279°
2026-05-03 22:18 60.50979 -146.78050 28208 ft 417 kts 280°
2026-05-03 22:19 60.51922 -146.83649 27127 ft 420 kts 281°
2026-05-03 22:19 60.52857 -146.89169 26611 ft 411 kts 280°
2026-05-03 22:19 60.53776 -146.94592 26204 ft 405 kts 281°
2026-05-03 22:19 60.54674 -146.99948 26179 ft 406 kts 280°
2026-05-03 22:20 60.55572 -147.05391 26189 ft 409 kts 280°
2026-05-03 22:20 60.56471 -147.10879 26193 ft 409 kts 280°
2026-05-03 22:20 60.57357 -147.16339 26193 ft 412 kts 280°
2026-05-03 22:20 60.58250 -147.21872 26193 ft 412 kts 281°
2026-05-03 22:21 60.59135 -147.27371 26200 ft 409 kts 280°
2026-05-03 22:21 60.60019 -147.32887 26197 ft 411 kts 280°
2026-05-03 22:21 60.60898 -147.38408 26194 ft 412 kts 279°
2026-05-03 22:21 60.61765 -147.43860 26203 ft 412 kts 280°
2026-05-03 22:22 60.62648 -147.49416 26209 ft 411 kts 280°
2026-05-03 22:22 60.63527 -147.54961 26198 ft 410 kts 280°
2026-05-03 22:22 60.64388 -147.60422 26208 ft 414 kts 280°
2026-05-03 22:22 60.65267 -147.66002 26211 ft 408 kts 279°
2026-05-03 22:23 60.66125 -147.71466 26208 ft 409 kts 279°
2026-05-03 22:23 60.66996 -147.77045 26216 ft 411 kts 279°
2026-05-03 22:23 60.67846 -147.82501 26208 ft 412 kts 279°
2026-05-03 22:23 60.68716 -147.88098 26209 ft 413 kts 279°
2026-05-03 22:24 60.69580 -147.93646 26207 ft 410 kts 279°
2026-05-03 22:24 60.70429 -147.99152 26207 ft 411 kts 278°
2026-05-03 22:24 60.71288 -148.04759 26209 ft 411 kts 279°
2026-05-03 22:24 60.72124 -148.10210 26191 ft 409 kts 279°
2026-05-03 22:25 60.72982 -148.15846 25894 ft 415 kts 279°
2026-05-03 22:25 60.73816 -148.21323 25200 ft 408 kts 279°
2026-05-03 22:25 60.74651 -148.26804 24401 ft 399 kts 279°
2026-05-03 22:25 60.75454 -148.32091 23829 ft 384 kts 279°
2026-05-03 22:26 60.76232 -148.37279 23395 ft 388 kts 280°
2026-05-03 22:26 60.77012 -148.42566 22798 ft 395 kts 279°
2026-05-03 22:26 60.77797 -148.47879 22112 ft 388 kts 280°
2026-05-03 22:26 60.78561 -148.53020 21424 ft 378 kts 279°
2026-05-03 22:27 60.79247 -148.57649 20790 ft 381 kts 280°